Hourly Weather Noisy-le-Sec

Today, 1 October, Thursday

Time Temperature Precipitation Wind Pressure Humidity
00:00 +15°C° 0 mm 4 mps 746 mmHg 77%
01:00 +14°C° 0.7 mm 5 mps 745 mmHg 80%
02:00 +14°C° 0.7 mm 5 mps 744 mmHg 83%
03:00 +14°C° 0.7 mm 5 mps 744 mmHg 87%
04:00 +14°C° 1.5 mm 5 mps 743 mmHg 88%
05:00 +14°C° 1.5 mm 5 mps 743 mmHg 89%
06:00 +14°C° 0 mm 5 mps 743 mmHg 90%
07:00 +14°C° 2.1 mm 5 mps 743 mmHg 87%
08:00 +14°C° 2.1 mm 5 mps 743 mmHg 85%
09:00 +14°C° 2.1 mm 4 mps 743 mmHg 82%
10:00 +15°C° 0.2 mm 5 mps 743 mmHg 74%
11:00 +16°C° 0.2 mm 5 mps 743 mmHg 65%
12:00 +17°C° 0.2 mm 6 mps 744 mmHg 57%
13:00 +17°C° 0.1 mm 6 mps 743 mmHg 54%
14:00 +17°C° 0.1 mm 5 mps 743 mmHg 51%
15:00 +17°C° 0.1 mm 5 mps 743 mmHg 48%
16:00 +17°C° 0 mm 4 mps 743 mmHg 51%
17:00 +15°C° 0 mm 4 mps 743 mmHg 55%
18:00 +14°C° 0 mm 3 mps 743 mmHg 58%
19:00 +13°C° 0 mm 3 mps 742 mmHg 60%
20:00 +13°C° 0 mm 3 mps 742 mmHg 63%
21:00 +13°C° 0 mm 3 mps 741 mmHg 65%
22:00 +12°C° 0 mm 3 mps 740 mmHg 69%
23:00 +12°C° 0 mm 4 mps 739 mmHg 73%

Tomorrow, 2 October, Friday

Time Temperature Precipitation Wind Pressure Humidity
00:00 +10°C° 0 mm 5 mps 738 mmHg 77%
01:00 +10°C° 0.2 mm 5 mps 737 mmHg 78%
02:00 +11°C° 0.2 mm 6 mps 736 mmHg 80%
03:00 +11°C° 0.2 mm 6 mps 734 mmHg 81%
04:00 +11°C° 1.4 mm 7 mps 734 mmHg 83%
05:00 +11°C° 1.4 mm 8 mps 733 mmHg 85%
06:00 +11°C° 1.4 mm 8 mps 732 mmHg 86%
07:00 +11°C° 0.9 mm 7 mps 732 mmHg 86%
08:00 +13°C° 0.9 mm 6 mps 733 mmHg 85%
09:00 +13°C° 0.9 mm 5 mps 733 mmHg 85%
10:00 +13°C° 0.5 mm 5 mps 733 mmHg 84%
11:00 +14°C° 0.5 mm 4 mps 733 mmHg 83%
12:00 +14°C° 0.5 mm 3 mps 733 mmHg 81%
13:00 +14°C° 1.5 mm 3 mps 733 mmHg 83%
14:00 +13°C° 1.5 mm 3 mps 732 mmHg 85%
15:00 +13°C° 1.5 mm 3 mps 732 mmHg 87%
16:00 +14°C° 1.9 mm 2 mps 732 mmHg 88%
17:00 +13°C° 1.9 mm 2 mps 732 mmHg 89%
18:00 +13°C° 1.9 mm 1 mps 732 mmHg 89%
19:00 +13°C° 0.5 mm 2 mps 732 mmHg 88%
20:00 +13°C° 0.5 mm 2 mps 732 mmHg 87%
21:00 +12°C° 0.5 mm 3 mps 733 mmHg 86%
22:00 +12°C° 0.1 mm 3 mps 733 mmHg 86%
23:00 +12°C° 0.1 mm 3 mps 733 mmHg 86%

Day after tomorrow, 3 October, Saturday

Time Temperature Precipitation Wind Pressure Humidity
00:00 +12°C° 0.1 mm 2 mps 733 mmHg 86%
01:00 +12°C° 0.5 mm 2 mps 733 mmHg 86%
02:00 +12°C° 0.5 mm 2 mps 733 mmHg 86%
03:00 +12°C° 0.5 mm 2 mps 733 mmHg 86%
04:00 +10°C° 0 mm 2 mps 733 mmHg 86%
05:00 +10°C° 0 mm 2 mps 733 mmHg 86%
06:00 +10°C° 0 mm 3 mps 733 mmHg 87%
07:00 +10°C° 0 mm 3 mps 733 mmHg 81%
08:00 +11°C° 0 mm 4 mps 733 mmHg 75%
09:00 +12°C° 0 mm 4 mps 734 mmHg 70%
10:00 +13°C° 0 mm 4 mps 733 mmHg 68%
11:00 +13°C° 0 mm 4 mps 733 mmHg 67%
12:00 +14°C° 0 mm 3 mps 733 mmHg 66%
13:00 +13°C° 0.3 mm 3 mps 732 mmHg 69%
14:00 +14°C° 0.3 mm 2 mps 732 mmHg 71%
15:00 +14°C° 0.3 mm 2 mps 732 mmHg 74%
16:00 +14°C° 0.7 mm 2 mps 731 mmHg 77%
17:00 +13°C° 0.7 mm 2 mps 731 mmHg 80%
18:00 +12°C° 0.7 mm 3 mps 731 mmHg 83%
19:00 +12°C° 0.3 mm 3 mps 731 mmHg 83%
20:00 +11°C° 0.3 mm 4 mps 731 mmHg 82%
21:00 +11°C° 0.3 mm 4 mps 730 mmHg 82%
22:00 +11°C° 0.2 mm 4 mps 730 mmHg 83%
23:00 +10°C° 0.2 mm 4 mps 731 mmHg 83%

4 October, Sunday

Time Temperature Precipitation Wind Pressure Humidity
00:00 +9°C° 0.2 mm 5 mps 731 mmHg 84%
01:00 +9°C° 0.4 mm 6 mps 731 mmHg 83%
02:00 +9°C° 0.4 mm 7 mps 731 mmHg 83%
03:00 +9°C° 0.4 mm 8 mps 732 mmHg 82%
04:00 +9°C° 0.5 mm 8 mps 732 mmHg 80%
05:00 +9°C° 0.5 mm 8 mps 733 mmHg 78%
06:00 +7°C° 0.5 mm 8 mps 734 mmHg 75%
07:00 +9°C° 0 mm 8 mps 734 mmHg 74%
08:00 +10°C° 0 mm 8 mps 735 mmHg 72%
09:00 +11°C° 0 mm 8 mps 735 mmHg 70%
10:00 +12°C° 0.1 mm 8 mps 736 mmHg 66%
11:00 +13°C° 0.1 mm 8 mps 736 mmHg 63%
12:00 +15°C° 0.1 mm 8 mps 736 mmHg 59%
13:00 +15°C° 0.1 mm 8 mps 736 mmHg 58%
14:00 +15°C° 0.1 mm 8 mps 736 mmHg 57%
15:00 +15°C° 0.1 mm 8 mps 736 mmHg 55%
16:00 +14°C° 0 mm 7 mps 736 mmHg 58%
17:00 +14°C° 0 mm 7 mps 737 mmHg 61%
18:00 +13°C° 0 mm 6 mps 737 mmHg 64%
19:00 +13°C° 0 mm 6 mps 738 mmHg 65%
20:00 +11°C° 0 mm 6 mps 738 mmHg 67%
21:00 +11°C° 0 mm 6 mps 738 mmHg 68%
22:00 +11°C° 0 mm 6 mps 739 mmHg 70%
23:00 +10°C° 0 mm 6 mps 739 mmHg 72%

5 October, Monday

Time Temperature Precipitation Wind Pressure Humidity
00:00 +10°C° 0 mm 6 mps 739 mmHg 73%
01:00 +10°C° 0 mm 6 mps 739 mmHg 73%
02:00 +10°C° 0 mm 7 mps 739 mmHg 72%
03:00 +10°C° 0 mm 7 mps 739 mmHg 72%
04:00 +10°C° 0.3 mm 7 mps 739 mmHg 75%
05:00 +10°C° 0.3 mm 8 mps 739 mmHg 78%
06:00 +10°C° 0.3 mm 8 mps 739 mmHg 81%
07:00 +10°C° 2 mm 8 mps 739 mmHg 83%
08:00 +10°C° 2 mm 9 mps 739 mmHg 85%
09:00 +10°C° 2 mm 9 mps 739 mmHg 86%
10:00 +11°C° 1.5 mm 9 mps 740 mmHg 86%
11:00 +11°C° 1.5 mm 9 mps 740 mmHg 85%
12:00 +11°C° 1.5 mm 9 mps 741 mmHg 85%
13:00 +11°C° 1 mm 8 mps 741 mmHg 85%
14:00 +11°C° 1 mm 8 mps 741 mmHg 85%
15:00 +12°C° 1 mm 8 mps 742 mmHg 86%
16:00 +12°C° 0.4 mm 7 mps 742 mmHg 85%
17:00 +12°C° 0.4 mm 7 mps 743 mmHg 84%
18:00 +13°C° 0.4 mm 6 mps 743 mmHg 83%
19:00 +13°C° 0.3 mm 6 mps 743 mmHg 82%
20:00 +13°C° 0.3 mm 6 mps 744 mmHg 81%
21:00 +12°C° 0.3 mm 7 mps 745 mmHg 80%
22:00 +11°C° 0.1 mm 6 mps 745 mmHg 80%
23:00 +11°C° 0.1 mm 6 mps 745 mmHg 80%

6 October, Tuesday

Time Temperature Precipitation Wind Pressure Humidity
00:00 +10°C° 0.1 mm 6 mps 746 mmHg 80%
01:00 +10°C° 0 mm 6 mps 746 mmHg 81%
02:00 +9°C° 0 mm 6 mps 746 mmHg 81%
03:00 +9°C° 0 mm 6 mps 746 mmHg 82%
04:00 +9°C° 0 mm 5 mps 746 mmHg 82%
05:00 +9°C° 0 mm 5 mps 747 mmHg 82%
06:00 +9°C° 0 mm 5 mps 747 mmHg 82%
07:00 +9°C° 0.1 mm 5 mps 747 mmHg 81%
08:00 +10°C° 0.1 mm 5 mps 747 mmHg 81%
09:00 +10°C° 0.1 mm 5 mps 747 mmHg 80%
10:00 +13°C° 0 mm 5 mps 746 mmHg 76%
11:00 +14°C° 0 mm 5 mps 746 mmHg 72%
12:00 +15°C° 0 mm 5 mps 746 mmHg 68%
13:00 +15°C° 0.2 mm 5 mps 745 mmHg 73%
14:00 +14°C° 0.2 mm 5 mps 745 mmHg 78%
15:00 +13°C° 0.2 mm 4 mps 745 mmHg 83%
16:00 +13°C° 0.3 mm 4 mps 744 mmHg 81%
17:00 +13°C° 0.3 mm 4 mps 744 mmHg 79%
18:00 +13°C° 0.3 mm 5 mps 744 mmHg 77%
19:00 +13°C° 0.1 mm 5 mps 745 mmHg 77%
20:00 +13°C° 0.1 mm 5 mps 745 mmHg 76%
21:00 +13°C° 0.1 mm 6 mps 746 mmHg 76%
22:00 +12°C° 0.2 mm 5 mps 746 mmHg 78%
23:00 +12°C° 0.2 mm 5 mps 746 mmHg 81%
Show more